Flag for Tonga Weather past 2 weeks in Nukualofa, Tonga

Now
72 °F

Scattered clouds.


Feels Like: 75 °F
Forecast: 71 / 78 °F
Wind: 1 mph from North

Location: Fua'Amotu

Current Time: May 23, 2015 at 8:37:46 AM

Latest Report: May 23, 2015 at 8:00 AM


Visibility: N/A

Pressure: 30.07 "Hg

Humidity: 69%

Dew point: 61 °F

Location of NukualofaLocation

Historic Weather in Nukualofa — Graph

°F

Nukualofa temperature yesterday

Maximum temperature yesterday: 77 °F (at 12:00 PM)
Minimum temperature yesterday: 64 °F (at 4:00 AM)
Average temperature yesterday: 71 °F

Past Weeks' High & Low Weather Summary

 TemperatureHumidityPressure
High84 °F (May 10, 2:00 PM)100% (May 11, 2:00 AM)30.12 "Hg (May 11, 2:00 AM)
Low64 °F (May 11, 5:00 AM)48% (May 13, 11:00 AM)29.83 "Hg (May 10, 3:00 PM)
Average74 °F71%29.98 "Hg
* Reported May 8 7:00 AM — May 23 7:00 AM, Nukualofa, Weather by CustomWeather, © 2015

Note: Actual official high and low records may vary slightly from our data, if they occured in-between our weather recording intervals... More about our weather records

Advertising

Nukualofa weather history for previous 24 hours

 ConditionsComfort  
Time TempWeatherWind HumidityBarometerVisibility
7:00 AM
Sat, May 23
68 °FPassing clouds.No wind78%30.07 "HgN/A
6:00 AM68 °FPassing clouds.No wind78%30.04 "HgN/A
5:00 AM68 °FPassing clouds.1 mph73%30.04 "HgN/A
4:00 AM70 °FPassing clouds.1 mph69%30.04 "HgN/A
3:00 AM70 °FPassing clouds.No wind73%30.07 "HgN/A
2:00 AM70 °FPassing clouds.2 mph73%30.07 "HgN/A
1:00 AM70 °FPassing clouds.No wind78%30.09 "HgN/A
12:00 AM72 °FPassing clouds.No wind73%30.09 "HgN/A
11:00 PM
Fri, May 22
72 °FPassing clouds.2 mph65%30.09 "HgN/A
10:00 PM72 °FPassing clouds.3 mph65%30.09 "HgN/A
9:00 PM72 °FPassing clouds.2 mph69%30.09 "HgN/A
8:00 PM72 °FPassing clouds.No wind69%30.07 "HgN/A
7:00 PM72 °FPassing clouds.No wind69%30.04 "HgN/A
6:00 PM73 °FPassing clouds.3 mph61%30.04 "HgN/A
5:00 PM75 °FPassing clouds.No wind61%30.04 "HgN/A
4:00 PM75 °FPassing clouds.12 mph57%30.04 "HgN/A
3:00 PM77 °FPassing clouds.3 mph57%30.07 "HgN/A
2:00 PM77 °FScattered clouds.9 mph57%30.07 "HgN/A
1:00 PM77 °FPassing clouds.3 mph54%30.09 "HgN/A
12:00 PM77 °FPassing clouds.10 mph54%30.09 "HgN/A
11:00 AM75 °FPassing clouds.5 mph57%30.12 "HgN/A
10:00 AM73 °FPassing clouds.8 mph57%30.12 "HgN/A
9:00 AM72 °FPassing clouds.No wind57%30.09 "HgN/A
8:00 AM68 °FPassing clouds.No wind64%30.09 "HgN/A
Weather by CustomWeather, © 2015

See weather overviewHow to use our weather pages